GW7243 Weather Reports


time (UTC)temp
F
wind
direction
speed
knots
gust
knots
rain 1hr
in
rain 24hr
in
rain mn
in
humidity
%
barometer
mb
20260504000304 58 347 0.0 1.7 0.00 0.00 0.00 82 1014.8
20260503235803 58 3 0.0 1.7 0.00 0.00 0.00 82 1014.6
20260503234804 58 112 0.0 0.9 0.00 0.00 0.00 82 1014.9
20260503234304 58 288 0.0 0.9 0.00 0.00 0.00 82 1015.0
20260503233303 59 292 0.9 2.6 0.00 0.00 0.00 82 1014.9
20260503232804 59 183 0.9 1.7 0.00 0.00 0.00 82 1015.1
20260503232305 59 170 1.7 1.7 0.00 0.00 0.00 81 1014.9
20260503231804 59 92 0.0 0.9 0.00 0.00 0.00 81 1014.8
20260503231303 59 240 0.9 1.7 0.00 0.00 0.00 80 1015.0
20260503225804 59 164 0.9 2.6 0.00 0.00 0.00 80 1014.9
20260503225304 58 157 1.7 1.7 0.00 0.00 0.00 80 1015.0
20260503224804 58 171 0.9 2.6 0.00 0.00 0.00 80 1015.0
20260503224304 58 180 1.7 2.6 0.00 0.00 0.00 80 1015.0
20260503223304 58 184 0.0 1.7 0.00 0.00 0.00 81 1015.1
20260503222804 58 315 0.9 0.9 0.00 0.00 0.00 80 1015.0
20260503222304 58 333 0.0 1.7 0.00 0.00 0.00 80 1015.2
20260503221804 58 186 2.6 4.3 0.00 0.00 0.00 80 1015.1
20260503221304 58 180 1.7 2.6 0.00 0.00 0.00 80 1014.9
20260503220304 58 167 2.6 2.6 0.00 0.00 0.00 80 1015.0
20260503215804 58 162 1.7 1.7 0.00 0.00 0.00 79 1015.0
20260503215304 58 155 0.9 1.7 0.00 0.00 0.00 79 1015.0
20260503214804 59 136 0.0 1.7 0.00 0.00 0.00 79 1015.1
20260503214304 59 166 0.0 0.9 0.00 0.00 0.00 79 1015.1
20260503213804 59 145 0.0 1.7 0.00 0.00 0.00 78 1015.0
20260503212305 59 262 1.7 4.3 0.00 0.00 0.00 77 1014.9
20260503211804 59 247 1.7 4.3 0.00 0.00 0.00 77 1014.8
20260503211304 59 242 2.6 5.2 0.00 0.00 0.00 77 1014.9
20260503210804 60 242 3.5 4.3 0.00 0.00 0.00 76 1014.8
20260503210304 60 257 2.6 5.2 0.00 0.00 0.00 75 1014.8
20260503205804 60 251 2.6 5.2 0.00 0.00 0.00 75 1014.9
20260503205305 60 276 2.6 4.3 0.00 0.00 0.00 74 1014.8
20260503204304 61 251 4.3 7.8 0.00 0.00 0.00 73 1014.7
20260503203804 61 277 3.5 7.0 0.00 0.00 0.00 73 1014.6
20260503203304 61 266 4.3 6.1 0.00 0.00 0.00 73 1014.5
20260503202804 61 258 4.3 6.1 0.00 0.00 0.00 72 1014.4
20260503202304 61 262 5.2 8.7 0.00 0.00 0.00 72 1014.5
20260503201804 62 261 6.1 7.8 0.00 0.00 0.00 71 1014.4
20260503201304 62 266 6.1 10.4 0.00 0.00 0.00 71 1014.4
20260503200804 62 256 6.1 10.4 0.00 0.00 0.00 71 1014.3
20260503200304 62 262 6.1 10.4 0.00 0.00 0.00 70 1014.3
20260503195804 62 250 6.1 8.7 0.00 0.00 0.00 70 1014.1
20260503195305 62 257 6.1 11.3 0.00 0.00 0.00 70 1014.0
20260503194804 62 250 5.2 8.7 0.00 0.00 0.00 69 1014.0
20260503194304 62 256 7.8 11.3 0.00 0.00 0.00 68 1014.0
20260503193804 63 252 6.1 10.4 0.00 0.00 0.00 68 1013.9
20260503193304 63 257 7.0 10.4 0.00 0.00 0.00 67 1013.8
20260503192804 63 249 4.3 7.0 0.00 0.00 0.00 67 1013.9
20260503192305 63 265 5.2 7.8 0.00 0.00 0.00 65 1013.8
20260503191804 63 251 7.8 11.3 0.00 0.00 0.00 64 1013.8
20260503190804 64 255 8.7 12.2 0.00 0.00 0.00 64 1013.8
20260503190304 64 266 7.8 12.2 0.00 0.00 0.00 63 1013.8
20260503185804 64 267 8.7 13.9 0.00 0.00 0.00 63 1013.7
20260503185305 65 259 9.6 17.4 0.00 0.00 0.00 61 1013.5
20260503184804 65 253 7.8 13.0 0.00 0.00 0.00 61 1013.4
20260503184304 65 249 10.4 14.8 0.00 0.00 0.00 60 1013.5
20260503183304 65 264 8.7 12.2 0.00 0.00 0.00 59 1013.3
20260503182804 65 224 8.7 13.9 0.00 0.00 0.00 58 1013.6
20260503182305 66 245 11.3 13.9 0.00 0.00 0.00 57 1013.5
20260503181804 66 240 8.7 14.8 0.00 0.00 0.00 56 1013.6
20260503181303 67 250 8.7 14.8 0.00 0.00 0.00 54 1013.4
20260503180304 67 257 9.6 14.8 0.00 0.00 0.00 56 1013.3
20260503175803 68 249 12.2 15.6 0.00 0.00 0.00 55 1013.3
20260503174304 68 239 12.2 17.4 0.00 0.00 0.00 53 1013.3
20260503173804 69 261 11.3 18.2 0.00 0.00 0.00 54 1013.2
20260503173304 70 245 14.8 19.1 0.00 0.00 0.00 52 1013.3
20260503172804 70 258 8.7 13.9 0.00 0.00 0.00 52 1013.3
20260503172305 70 254 8.7 17.4 0.00 0.00 0.00 52 1013.3
20260503171304 70 227 8.7 17.4 0.00 0.00 0.00 52 1013.3
20260503170804 69 234 10.4 14.8 0.00 0.00 0.00 53 1013.2
20260503150804 72 251 12.2 17.4 0.00 0.00 0.00 41 1013.6
20260503150304 72 251 13.0 18.2 0.00 0.00 0.00 43 1013.4
20260503140304 72 237 7.0 17.4 0.00 0.00 0.00 45 1013.8
20260503131303 72 243 10.4 13.9 0.00 0.00 0.00 48 1014.1
20260503130804 72 238 10.4 13.0 0.00 0.00 0.00 47 1014.2
20260503130304 72 208 8.7 12.2 0.00 0.00 0.00 48 1014.3
20260503110803 71 287 5.2 8.7 0.00 0.00 0.00 50 1015.3
20260503110304 68 237 6.1 11.3 0.00 0.00 0.00 55 1015.5
20260503090304 66 228 5.2 7.0 0.00 0.00 0.00 70 1015.3
20260503081304 63 268 2.6 6.1 0.00 0.00 0.00 79 1015.5
20260503080804 63 274 3.5 6.1 0.00 0.00 0.00 80 1015.6
20260503080304 62 279 4.3 6.1 0.00 0.00 0.00 81 1015.5
20260503072804 62 281 1.7 4.3 0.00 0.00 0.00 84 1015.4
20260503072305 61 305 2.6 5.2 0.00 0.00 0.00 85 1015.5
20260503071804 61 327 4.3 6.1 0.00 0.00 0.00 86 1015.3
20260503070804 61 297 4.3 6.1 0.00 0.00 0.00 88 1015.3
20260503070304 61 299 3.5 5.2 0.00 0.00 0.00 89 1015.4
20260503060304 60 309 5.2 7.0 0.00 0.00 0.00 91 1015.2
20260503054804 60 317 5.2 7.8 0.00 0.00 0.00 91 1014.9
20260503054304 60 291 4.3 7.8 0.00 0.00 0.00 91 1014.9
20260503053804 60 306 4.3 7.0 0.00 0.00 0.00 91 1014.9
20260503053304 60 288 5.2 7.0 0.00 0.00 0.00 91 1014.8
20260503052804 60 294 5.2 7.0 0.00 0.00 0.00 91 1014.8
20260503052305 60 314 4.3 5.2 0.00 0.00 0.00 91 1014.7
20260503051804 60 317 1.7 2.6 0.00 0.00 0.00 91 1014.6
20260503051304 60 242 0.9 2.6 0.00 0.00 0.00 91 1014.8
20260503050804 60 277 1.7 4.3 0.00 0.00 0.00 91 1014.7
20260503045804 60 279 3.5 5.2 0.00 0.00 0.00 91 1014.7
20260503044804 60 241 2.6 4.3 0.00 0.00 0.00 91 1014.7
20260503044304 60 302 1.7 4.3 0.00 0.00 0.00 91 1014.7
20260503043804 60 291 2.6 6.1 0.00 0.00 0.00 91 1014.6
20260503043304 60 240 2.6 5.2 0.00 0.00 0.00 91 1014.7
20260503042804 60 296 3.5 6.1 0.00 0.00 0.00 91 1014.7
20260503041304 60 214 2.6 2.6 0.00 0.00 0.00 90 1014.8
20260503040803 60 225 1.7 2.6 0.00 0.00 0.00 90 1014.8
20260503040304 60 288 1.7 2.6 0.00 0.00 0.00 90 1014.7
20260503035804 60 289 0.9 4.3 0.00 0.00 0.00 89 1015.0
20260503035305 60 213 2.6 4.3 0.00 0.00 0.00 89 1014.7
20260503034304 60 8 0.0 0.0 0.00 0.00 0.00 89 1014.9
20260503033804 60 80 0.0 1.7 0.00 0.00 0.00 89 1014.9
20260503033304 60 156 0.9 1.7 0.00 0.00 0.00 89 1014.9
20260503032804 60 184 0.9 1.7 0.00 0.00 0.00 89 1015.0
20260503031804 60 8 0.0 1.7 0.00 0.00 0.00 88 1015.1
20260503031304 60 279 0.0 0.9 0.00 0.00 0.00 88 1015.0
20260503030804 60 233 0.9 1.7 0.00 0.00 0.00 87 1015.1
20260503030304 60 101 0.0 1.7 0.00 0.00 0.00 87 1015.0
20260503025804 61 194 0.0 1.7 0.00 0.00 0.00 86 1015.2
20260503025305 61 47 0.9 2.6 0.00 0.00 0.00 86 1015.2
20260503024805 61 275 1.7 2.6 0.00 0.00 0.00 86 1015.1
20260503024304 60 324 0.0 0.9 0.00 0.00 0.00 86 1015.1
20260503023804 60 220 0.0 1.7 0.00 0.00 0.00 86 1015.0
20260503022804 60 136 0.0 0.0 0.00 0.00 0.00 86 1015.1
20260503022305 60 276 0.0 1.7 0.00 0.00 0.00 86 1015.1
20260503021804 60 324 0.9 1.7 0.00 0.00 0.00 86 1015.1
20260503020805 60 111 0.9 0.9 0.00 0.00 0.00 85 1015.4
20260503020304 60 339 0.9 0.9 0.00 0.00 0.00 85 1015.4
20260503015804 60 154 0.0 0.9 0.00 0.00 0.00 85 1015.3
20260503015305 60 321 0.9 1.7 0.00 0.00 0.00 85 1015.3
20260503014804 60 180 0.0 0.9 0.00 0.00 0.00 85 1015.3
20260503014304 60 155 0.0 0.9 0.00 0.00 0.00 85 1015.3
20260503013804 60 233 0.0 1.7 0.00 0.00 0.00 85 1015.5
20260503013304 60 322 0.0 0.0 0.00 0.00 0.00 85 1015.4
20260503012804 60 225 0.0 0.0 0.00 0.00 0.00 85 1015.7
20260503012305 60 231 0.0 0.9 0.00 0.00 0.00 85 1015.7
20260503011304 59 348 0.0 0.9 0.00 0.00 0.00 85 1015.8
20260503010804 59 306 0.9 1.7 0.00 0.00 0.00 85 1015.8
20260503010304 59 324 0.0 1.7 0.00 0.00 0.00 84 1015.7
20260503005804 59 218 0.9 1.7 0.00 0.00 0.00 84 1016.0
20260503005305 60 319 0.9 1.7 0.00 0.00 0.00 84 1016.1
20260503004304 60 174 0.0 0.9 0.00 0.00 0.00 83 1016.0
20260503003804 60 158 0.0 1.7 0.00 0.00 0.00 83 1016.2
20260503002804 59 146 0.0 1.7 0.00 0.00 0.00 83 1016.3
20260503001804 60 359 0.0 0.9 0.00 0.00 0.00 82 1016.2
20260503001304 60 147 0.0 0.9 0.00 0.00 0.00 82 1016.3
20260503000803 60 91 0.0 2.6 0.00 0.00 0.00 82 1016.2